Regional Weather Roundup
Issued by NWS Albany, NY

Home | Current Version | Previous Version | Text Only | Print | Product List | Glossary On
Versions: 1 2 3 4 5 6 7 8 9 10 11 12 13 14 15 16 17 18 19 20 21 22 23 24 25 26 27
000
ASUS41 KALY 161210
RWRALY

NEW YORK STATE HOURLY WEATHER ROUNDUP
NATIONAL WEATHER SERVICE ALBANY NY
800 AM EDT WED AUG 16 2017

NOTE: "FAIR" INDICATES FEW OR NO CLOUDS BELOW 12,000 FEET WITH NO
SIGNIFICANT WEATHER AND/OR NO OBSTRUCTIONS TO VISIBILITY.

NYZ032-033-038>043-046>054-057>066-NYZ062>081-082-084-161300-
EAST


CITY           SKY/WX    TMP DP  RH WIND       PRES   REMARKS
ALBANY         MOSUNNY   68  63  84 N3        29.98R
GLENS FALLS    PTSUNNY   66  61  84 CALM      29.98R
POUGHKEEPSIE   FOG       65  64  97 CALM      29.97R VSB 3/4
NEWBURGH       SUNNY     68  68 100 CALM      30.00
MONTGOMERY     MOSUNNY   66  65  96 CALM      29.99R
WHITE PLAINS   MOSUNNY   72  65  78 NW10      29.96R
ISLIP          MOSUNNY   72  71  97 NW8       29.94S FOG
NEW YORK CITY  MOSUNNY   73  68  84 NW8       29.95R
CENTRAL PARK   SUNNY     71  68  90 VRB3      29.99R FOG
$$

NYZ005>009-017-018-044>046-055-056-161300-
CENTRAL


CITY           SKY/WX    TMP DP  RH WIND       PRES   REMARKS
FULTON         MOSUNNY   67  63  87 NE7       30.03R
SYRACUSE       CLOUDY    66  66 100 N3        30.01R FOG
ROME           PTSUNNY   66  63  90 N3        30.02R
ELMIRA         CLOUDY    64  64 100 SW5       30.04R FOG
BINGHAMTON     MOSUNNY   63  62  97 NW6       30.05R FOG
MONTICELLO     SUNNY     63  61  93 W3        30.04R
$$

NYZ026>034-041>043-087-161300-
NORTH


CITY           SKY/WX    TMP DP  RH WIND       PRES   REMARKS
WATERTOWN      MOSUNNY   62  59  90 NE10      30.04R
FORT DRUM      NOT AVBL
OGDENSBURG     FAIR      61  56  83 N7        30.05R
MASSENA        SUNNY     61  54  77 N7        30.05R
SARANAC LAKE   PTSUNNY   59  58  96 CALM      30.03R
PLATTSBURGH    CLOUDY    64  59  83 N9        30.00R
$$

NYZ001>004-010>016-019>021-085-161300-
WEST


CITY           SKY/WX    TMP DP  RH WIND       PRES   REMARKS
NIAGARA FALLS  PTSUNNY   68  32  26 CALM      30.06R
BUFFALO        PTSUNNY   66  63  90 CALM      30.06R
DUNKIRK        SUNNY     65  63  93 CALM      30.06S
JAMESTOWN      FOG       61  60  97 CALM      30.10R VSB<1/4
WELLSVILLE     CLOUDY    65  62  90 W6        30.11R FOG
ROCHESTER      PTSUNNY   64  62  93 SW6       30.06R
PENN YAN       PTSUNNY   65  60  84 W6        30.06R
$$

             KEY
       WCI = WIND CHILL INDEX
       VSB = VISIBILITY
       HX  = HEAT INDEX
$$




USA.gov is the U.S. government's official web portal to all federal, state and local government web resources and services.